This is the latest recevied weather packets stored in our database for station/object EA5BZ. If no packets are shown the sender has not sent any weather packets the latest 10 day(s).
| Time | Temp. | Humidity | Pressure | Rain* | Wind** | Luminosity | Snow |
|---|---|---|---|---|---|---|---|
| 1777554317 | 21.67° C | 71% | 1016.4 hPa | 0 mm | - | - | - |
| 1777553417 | 21.67° C | 71% | 1016.5 hPa | 0 mm | - | - | - |
| 1777551016 | 22.22° C | 69% | 1016.3 hPa | 0 mm | - | - | - |
| 1777549817 | 22.22° C | 70% | 1016.4 hPa | 0 mm | - | - | - |
| 1777549216 | 22.22° C | 70% | 1016.4 hPa | 0 mm | - | - | - |
| 1777547737 | 22.22° C | 70% | 1016.5 hPa | 0 mm | - | - | - |
| 1777546516 | 22.22° C | 70% | 1016.7 hPa | 0 mm | - | - | - |
| 1777546236 | 22.22° C | 70% | 1016.8 hPa | 0 mm | - | - | - |
| 1777545316 | 22.22° C | 72% | 1017 hPa | 0 mm | - | - | - |
| 1777543216 | 21.67° C | 68% | 1017.3 hPa | 0 mm | - | - | - |
| 1777542636 | 21.67° C | 69% | 1017.3 hPa | 0 mm | - | - | - |
| 1777539336 | 20.56° C | 70% | 1017.2 hPa | 0 mm | - | - | - |
| 1777538716 | 20.56° C | 70% | 1017.2 hPa | 0 mm | - | - | - |
| 1777538416 | 20.56° C | 70% | 1017.1 hPa | 0 mm | - | - | - |
| 1777538116 | 20.56° C | 70% | 1017.1 hPa | 0 mm | - | - | - |
| 1777537816 | 20.56° C | 70% | 1017.1 hPa | 0 mm | - | - | - |
| 1777537216 | 21.11° C | 67% | 1017.1 hPa | 0 mm | - | - | - |
| 1777536016 | 21.67° C | 67% | 1017 hPa | 0 mm | - | - | - |
| 1777535416 | 21.11° C | 69% | 1016.9 hPa | 0 mm | - | - | - |
| 1777534816 | 20.56° C | 69% | 1017 hPa | 0 mm | - | - | - |
| 1777533616 | 20° C | 71% | 1016.6 hPa | 0 mm | - | - | - |
| 1777532116 | 18.89° C | 73% | 1016.4 hPa | 0 mm | - | - | - |
| 1777531816 | 18.33° C | 74% | 1016.4 hPa | 0 mm | - | - | - |
| 1777531216 | 17.78° C | 77% | 1016.3 hPa | 0 mm | - | - | - |
| 1777530616 | 17.22° C | 78% | 1016.4 hPa | 0 mm | - | - | - |
* Rain latest hour (hover to see other rain measurements)
** Current wind speed in m/s (hover to see current wind gust speed)